Regional Weather Roundup
Issued by NWS

Home | Current Version | Previous Version | Text Only | Print | Product List | Glossary Off
Versions: 1 2 3 4 5 6 7 8 9 10 11 12 13 14 15 16 17 18 19 20 21 22 23 24 25 26 27 28 29 30 31 32 33 34 35 36 37 38 39 40 41 42 43 44 45 46 47 48 49 50

000
ASUS43 KOAX 242102
RWRNE

WEATHER ROUNDUP FOR NEBRASKA
NATIONAL WEATHER SERVICE OMAHA NE
400 PM CDT FRI MAR 24 2017

NOTES: SATELLITE DATA IS BEING USED TO AUGMENT CLOUD COVER ABOVE
       12000 FEET.
       "FAIR" INDICATES FEW OR NO CLOUDS BELOW 12,000 FEET WITH NO
       SIGNIFICANT WEATHER AND/OR OBSTRUCTIONS TO VISIBILITY.

  * THESE STATIONS DO NOT REPORT WEATHER SUCH AS RAIN...SNOW OR FOG.

NEZ001>004-019>022-054>056-242200-
NEBRASKA PANHANDLE

CITY           SKY/WX    TMP DP  RH WIND       PRES   REMARKS
SCOTTSBLUFF    PTSUNNY   56  27  32 N14G23    30.09F
CHADRON        MOSUNNY   59  31  34 E9        30.08F
KIMBALL        PTSUNNY   54  34  47 NE17G23   30.10S
SIDNEY         PTSUNNY   52  32  46 N23G29    30.08S
$$

NEZ057>060-069>072-079>082-242200-
SOUTHWEST NEBRASKA

CITY           SKY/WX    TMP DP  RH WIND       PRES   REMARKS
NORTH PLATTE   CLOUDY    46  38  73 NE18G25   30.04R
IMPERIAL       LGT RAIN  44  39  82 N20       30.06R
LEXINGTON      RAIN      40  38  91 N20       30.00S WCI  31
MCCOOK         LGT RAIN  41  40  96 N14       30.01R FOG
OGALLALA       DRIZZLE   48  39  71 NE13      30.06S
$$

NEZ005>010-023>029-035>040-094-242200-
NORTH CENTRAL NEBRASKA

CITY           SKY/WX    TMP DP  RH WIND       PRES   REMARKS
VALENTINE      CLOUDY    56  33  42 NE20G25   30.06S
AINSWORTH      CLOUDY    49  37  61 N16       30.05F
BROKEN BOW     LGT RAIN  42  40  92 N14G28    29.99R
O`NEILL        DRIZZLE   43  40  91 N16       30.05S
ORD            CLOUDY    41  37  86 N17G29    29.98F
THEDFORD       CLOUDY    50  38  64 N22G28    30.04F
$$

NEZ041-046>049-061>064-073>077-083>087-242200-
SOUTH CENTRAL NEBRASKA

CITY           SKY/WX    TMP DP  RH WIND       PRES   REMARKS
GRAND ISLAND   LGT RAIN  39  39 100 N23       29.96F FOG     WCI  28
AURORA         CLOUDY    40  39  95 N23G29    29.95S WCI  30
HASTINGS       CLOUDY    41  38  89 N17       29.96R
HEBRON         CLOUDY    46  42  84 N17G24    29.90S
HOLDREGE       DRIZZLE   40  38  91 N23       29.96S WCI  30
KEARNEY *      CLOUDY    39  36  87 N14       29.98R WCI  31
YORK           CLOUDY    41  41 100 N26       29.95R
$$

NEZ011>018-030>034-042>045-242200-
NORTHEAST NEBRASKA

CITY           SKY/WX    TMP DP  RH WIND       PRES   REMARKS
NORFOLK        CLOUDY    40  37  89 N18G26    29.99F WCI  31
ALBION         CLOUDY    41  38  86 N17G23    29.99F
BLAIR          CLOUDY    44  42  95 N18G24    29.92S FOG
FREMONT        CLOUDY    42  42  99 N12G18    29.96S FOG
TEKAMAH        LGT RAIN  43  40  89 N23       29.97F FOG
WAYNE          LGT RAIN  40  40  97 NE15      30.02S WCI  32
$$

NEZ050>053-065>068-078-088>093-242200-
SOUTHEAST NEBRASKA

CITY           SKY/WX    TMP DP  RH WIND       PRES   REMARKS
LINCOLN        CLOUDY    45  42  89 N20       29.97R
OMAHA EPPLEY   CLOUDY    47  42  83 N18       29.91F
BEATRICE       CLOUDY    47  45  92 N20G25    29.88F FOG
FALLS CITY     RAIN      60  56  86 E6        29.83R FOG
NEBRASKA CITY  CLOUDY    50  46  86 N14       29.91R
PLATTSMOUTH    CLOUDY    47  42  81 N9G18     29.93R
$$

NEZ044-045-051>053-067-242200-
OMAHA AREA

CITY           SKY/WX    TMP DP  RH WIND       PRES   REMARKS
OMAHA EPPLEY   CLOUDY    47  42  83 N18       29.91F
BLAIR          CLOUDY    44  42  95 N18G24    29.92S FOG
FREMONT        CLOUDY    42  42  99 N12G18    29.96S FOG
MILLARD        CLOUDY    48  44  87 N7G18     29.93S
OFFUTT AFB     CLOUDY    47  42  84 N9        29.94R
PLATTSMOUTH    CLOUDY    47  42  81 N9G18     29.93R
WAHOO          CLOUDY    43  41  92 N17       29.95S
$$




USA.gov is the U.S. government's official web portal to all federal, state and local government web resources and services.